Overview Statistics Trail Chart Weather Telemetry Raw packets
 

This is the latest recevied weather packets stored in our database for station/object IZ2WYA-13. If no packets are shown the sender has not sent any weather packets the latest 10 day(s).

<< 10 11 12 13 14 15 16 >>
Time Temp. Humidity Pressure Rain* Wind** Luminosity Snow
1788039997 25° C 54% 1017.5 hPa - - - -
1788038196 25° C 52% 1017.2 hPa - - - -
1788036395 25.56° C 53% 1016.9 hPa - - - -
1788034594 25.56° C 53% 1016.7 hPa - - - -
1788032792 26.11° C 51% 1016.3 hPa - - - -
1788030991 26.11° C 52% 1016.1 hPa - - - -
1788029190 26.67° C 50% 1015.6 hPa - - - -
1788027388 26.67° C 51% 1015.2 hPa - - - -
1788025587 27.22° C 49% 1014.7 hPa - - - -
1788023786 27.22° C 51% 1014.5 hPa - - - -
1788021984 27.78° C 52% 1014.4 hPa - - - -
1788020183 27.78° C 53% 1014.4 hPa - - - -
1788018382 27.78° C 53% 1014.3 hPa - - - -
1788016581 27.78° C 52% 1014.4 hPa - - - -
1788014780 27.22° C 52% 1014.6 hPa - - - -
1788012978 27.22° C 51% 1014.6 hPa - - - -
1788011177 27.22° C 53% 1015 hPa - - - -
1788009376 26.67° C 53% 1015.1 hPa - - - -
1788007574 26.67° C 51% 1015.3 hPa - - - -
1788005773 26.67° C 51% 1015.3 hPa - - - -
1788003972 26.11° C 54% 1015.5 hPa - - - -
1788002171 25.56° C 55% 1016 hPa - - - -
1788000370 25.56° C 55% 1016.4 hPa - - - -
1787998568 25° C 59% 1016.7 hPa - - - -
1787996767 24.44° C 60% 1016.9 hPa - - - -

* Rain since midnight (hover to see other rain measurements)
** Current wind speed in m/s (hover to see current wind gust speed)